Location: Newark
(16.3678°N, 77.8722°E)
Time: 08:49:39
(UTC+00:00)

S-56A Canister/Altair - Pass Details

Date: 19 December 2019
Orbit: 634 x 2498 km, 38.9° (Epoch: 26 January)

Event Time Altitude Azimuth Distance (km) Brightness Sun altitude
Rises 22:25:54 0° 200° (SSW) 3,518 - -38.0°
Reaches altitude 10° 22:28:29 10° 188° (S) 2,782 - -37.5°
Exits shadow 22:28:55 12° 185° (S) 2,674 10.4 -37.4°
Maximum altitude 22:34:18 29° 129° (SE) 2,147 10.2 -36.1°
Drops below altitude 10° 22:42:22 10° 74° (ENE) 3,949 11.7 -34.3°
Sets 22:46:48 0° 65° (ENE) 5,271 12.4 -33.3°
